Temp
-7 -7 -7 -6 -6 -6 -6 -5 -5 -5 -5 -5 -5 -5 -5 -5 -5 -5 -5 -5 -5 -5 -5 -5 -5 -5 -5 -6 -5 -6 -6 -6 -6 -7 -7 -7 -7 -7 -7 -8 -8 -8 -8
-8 -7 -7 -7 -7 -7 -6 -6 -6 -5 -5 -5 -5 -5 -5 -5 -5 -5 -5 -5 -5 -5 -5 -5 -6 -6 -6 -6 -6 -6 -6 -7 -7 -7 -7 -7 -7 -8 -8 -8 -8 -9 -9
-8 -8 -7 -7 -7 -7 -7 -6 -6 -6 -6 -6 -6 -6 -5 -5 -5 -5 -5 -5 -5 -5 -6 -6 -6 -6 -6 -6 -6 -7 -7 -7 -7 -7 -8 -8 -8 -8 -8 -9 -9 -9 -9
-8 -8 -8 -7 -7 -7 -7 -7 -7 -7 -6 -6 -6 -6 -6 -6 -6 -6 -6 -6 -6 -6 -6 -6 -6 -6 -7 -7 -7 -7 -7 -8 -8 -8 -8 -8 -9 -9 -9 -9 -9 -9 -9
-8 -8 -8 -8 -7 -7 -7 -7 -7 -7 -7 -7 -6 -6 -6 -6 -6 -6 -6 -6 -6 -6 -6 -6 -7 -7 -7 -7 -7 -7 -8 -8 -8 -8 -8 -9 -9 -9 -9 -9 -10 -10 -10
-8 -8 -8 -8 -8 -7 -8 -8 -8 -7 -7 -7 -7 -7 -7 -7 -7 -7 -7 -7 -7 -7 -7 -7 -7 -7 -7 -7 -7 -8 -8 -8 -8 -9 -9 -9 -9 -9 -10 -10 -10 -10 -10
-8 -8 -8 -8 -8 -8 -8 -8 -8 -8 -8 -8 -8 -8 -8 -8 -8 -8 -8 -7 -8 -8 -7 -7 -7 -7 -8 -8 -8 -8 -8 -9 -9 -9 -9 -10 -10 -10 -10 -10 -10 -10 -10
-9 -9 -9 -9 -9 -9 -9 -9 -9 -9 -9 -9 -9 -9 -9 -9 -9 -9 -9 -9 -9 -8 -8 -8 -8 -8 -8 -8 -8 -9 -9 -9 -9 -10 -10 -10 -10 -10 -10 -11 -11 -11 -11
-9 -9 -9 -9 -9 -9 -9 -9 -9 -9 -9 -9 -9 -10 -10 -10 -9 -9 -9 -9 -9 -9 -9 -9 -9 -9 -9 -9 -9 -9 -9 -10 -10 -10 -10 -10 -10 -11 -11 -11 -11 -11 -11
-9 -9 -9 -10 -10 -10 -10 -10 -10 -9 -9 -10 -10 -10 -10 -10 -10 -10 -10 -10 -10 -10 -10 -10 -10 -10 -10 -10 -10 -10 -10 -10 -10 -10 -10 -10 -10 -11 -11 -11 -11 -11 -11
-10 -10 -10 -10 -10 -10 -9 -10 -10 -10 -10 -10 -10 -10 -10 -10 -10 -10 -11 -11 -11 -11 -11 -11 -11 -11 -10 -10 -11 -11 -11 -11 -11 -11 -11 -11 -11 -11 -11 -11 -11 -11 -11
-9 -9 -9 -9 -9 -9 -10 -10 -10 -10 -10 -10 -10 -11 -11 -11 -11 -11 -11 -11 -11 -11 -11 -11 -11 -11 -11 -11 -11 -11 -11 -11 -11 -11 -11 -11 -11 -11 -11 -11 -12 -12 -12
-10 -10 -10 -10 -10 -10 -10 -10 -10 -10 -10 -10 -11 -11 -11 -11 -11 -11 -11 -11 -11 -11 -11 -12 -12 -12 -12 -12 -12 -12 -12 -12 -12 -12 -12 -12 -11 -11 -12 -12 -12 -12 -12
-11 -10 -10 -10 -10 -10 -10 -10 -10 -10 -10 -10 -10 -11 -11 -11 -11 -11 -11 -11 -11 -11 -11 -12 -12 -12 -12 -12 -13 -12 -13 -12 -12 -12 -12 -12 -12 -12 -12 -12 -12 -12 -12
-11 -10 -10 -10 -10 -10 -10 -10 -10 -10 -10 -10 -10 -10 -10 -11 -11 -11 -11 -11 -11 -11 -11 -12 -12 -12 -12 -12 -12 -13 -13 -13 -13 -13 -13 -13 -13 -13 -13 -13 -13 -13 -13
-11 -10 -10 -10 -10 -10 -11 -11 -11 -10 -10 -10 -10 -10 -10 -11 -11 -11 -11 -11 -11 -11 -11 -11 -12 -12 -12 -12 -12 -13 -13 -13 -13 -13 -13 -13 -13 -14 -14 -14 -14 -14 -13
-11 -10 -10 -10 -11 -11 -11 -11 -11 -11 -11 -11 -11 -10 -11 -10 -11 -11 -11 -11 -11 -11 -11 -11 -11 -11 -12 -12 -12 -13 -13 -13 -13 -14 -14 -14 -13 -13 -13 -13 -14 -14 -14
-11 -11 -11 -11 -11 -11 -11 -11 -11 -11 -11 -11 -11 -11 -11 -11 -11 -11 -11 -12 -11 -11 -11 -11 -11 -11 -12 -12 -12 -13 -13 -13 -13 -13 -13 -13 -13 -13 -13 -13 -13 -14 -14
-11 -11 -11 -10 -10 -10 -11 -11 -11 -11 -11 -11 -11 -11 -11 -11 -11 -11 -11 -11 -12 -12 -12 -12 -12 -12 -12 -12 -12 -13 -13 -13 -13 -13 -13 -13 -13 -13 -13 -13 -13 -13 -13
-11 -11 -11 -11 -11 -11 -11 -11 -11 -11 -11 -11 -11 -11 -12 -11 -11 -12 -11 -11 -11 -12 -12 -12 -12 -12 -12 -12 -12 -12 -13 -13 -13 -13 -13 -13 -13 -13 -13 -13 -13 -13 -13
-11 -11 -11 -11 -11 -11 -11 -11 -11 -11 -11 -11 -11 -11 -11 -11 -11 -12 -12 -12 -12 -12 -12 -12 -12 -13 -13 -13 -13 -13 -13 -13 -13 -13 -13 -13 -13 -13 -13 -13 -13 -13 -13
-11 -11 -11 -11 -11 -11 -11 -11 -11 -11 -11 -11 -11 -11 -11 -11 -12 -12 -12 -12 -12 -13 -13 -13 -13 -13 -13 -13 -13 -13 -13 -13 -13 -13 -13 -13 -13 -13 -13 -13 -13 -13 -13
-11 -11 -11 -11 -11 -11 -11 -10 -11 -11 -11 -11 -11 -12 -12 -12 -12 -12 -12 -12 -12 -13 -13 -13 -13 -13 -13 -13 -13 -13 -13 -13 -14 -14 -14 -14 -14 -14 -14 -14 -14 -14 -14
-11 -11 -11 -11 -11 -11 -11 -11 -11 -11 -11 -12 -12 -12 -12 -11 -11 -12 -12 -12 -13 -13 -13 -13 -13 -13 -13 -13 -13 -13 -13 -13 -13 -14 -14 -14 -14 -14 -14 -14 -14 -14 -14
-11 -11 -11 -11 -11 -11 -11 -11 -11 -11 -11 -11 -12 -12 -13 -12 -12 -12 -12 -12 -13 -13 -13 -13 -13 -13 -14 -13 -13 -13 -13 -14 -14 -13 -14 -14 -14 -14 -14 -14 -14 -14 -15
-11 -11 -11 -11 -11 -11 -12 -12 -12 -12 -12 -12 -12 -12 -13 -13 -13 -13 -13 -12 -13 -13 -13 -13 -13 -13 -14 -14 -14 -14 -14 -14 -14 -14 -14 -14 -14 -14 -14 -14 -14 -15 -15
Height
5886 5886 5887 5888 5889 5889 5890 5890 5890 5889 5889 5889 5889 5889 5889 5889 5888 5888 5887 5886 5886 5885 5885 5885 5883 5883 5882 5881 5880 5880 5879 5878 5878 5878 5877 5876 5875 5874 5873 5873 5872 5871 5871
5883 5884 5885 5886 5886 5887 5888 5888 5889 5888 5888 5887 5887 5887 5887 5886 5886 5885 5885 5884 5883 5883 5882 5882 5881 5880 5880 5879 5877 5876 5876 5876 5876 5875 5874 5874 5873 5872 5870 5870 5870 5869 5869
5880 5881 5882 5883 5884 5884 5884 5885 5886 5886 5886 5886 5885 5885 5885 5884 5883 5883 5883 5881 5880 5880 5879 5878 5877 5877 5876 5875 5875 5874 5874 5873 5873 5872 5871 5870 5870 5869 5869 5868 5867 5867 5866
5877 5878 5880 5880 5881 5882 5882 5882 5883 5883 5883 5883 5883 5882 5882 5881 5881 5880 5880 5879 5878 5876 5875 5874 5873 5873 5873 5873 5872 5872 5871 5871 5870 5869 5868 5867 5867 5867 5867 5866 5864 5864 5863
5875 5876 5876 5877 5878 5879 5880 5879 5880 5880 5880 5880 5880 5880 5879 5878 5878 5877 5876 5876 5875 5874 5872 5871 5870 5870 5869 5869 5869 5868 5868 5868 5867 5866 5866 5865 5864 5864 5864 5863 5862 5861 5860
5872 5873 5873 5874 5875 5876 5876 5877 5877 5876 5877 5877 5877 5877 5876 5875 5875 5874 5873 5872 5871 5871 5870 5869 5868 5867 5866 5866 5865 5865 5865 5864 5863 5862 5862 5862 5861 5860 5860 5859 5858 5858 5857
5869 5870 5870 5871 5872 5873 5873 5873 5873 5873 5873 5873 5873 5872 5872 5872 5871 5870 5870 5869 5868 5867 5867 5866 5865 5865 5864 5863 5862 5862 5861 5860 5860 5859 5858 5858 5857 5857 5857 5856 5855 5854 5853
5865 5866 5866 5867 5867 5868 5869 5870 5870 5870 5870 5869 5869 5869 5869 5868 5868 5867 5866 5866 5865 5864 5863 5862 5861 5861 5861 5860 5859 5858 5858 5857 5856 5856 5855 5855 5854 5854 5853 5852 5851 5850 5849
5860 5862 5863 5863 5864 5864 5865 5866 5866 5866 5866 5865 5865 5865 5865 5864 5864 5863 5862 5861 5860 5860 5859 5859 5859 5858 5858 5857 5856 5856 5855 5854 5853 5852 5852 5851 5851 5850 5849 5848 5847 5846 5845
5856 5856 5857 5859 5859 5860 5861 5862 5861 5861 5861 5861 5861 5861 5861 5860 5859 5859 5858 5858 5857 5857 5856 5856 5855 5855 5854 5854 5853 5852 5851 5850 5850 5848 5847 5846 5846 5845 5844 5843 5842 5841 5840
5851 5852 5852 5853 5855 5855 5856 5857 5857 5856 5856 5856 5856 5856 5856 5856 5855 5855 5854 5854 5854 5853 5852 5852 5851 5851 5850 5849 5848 5848 5847 5846 5845 5844 5844 5842 5841 5840 5839 5837 5836 5835 5834
5846 5847 5849 5850 5850 5851 5851 5852 5852 5852 5852 5852 5852 5851 5852 5851 5851 5851 5850 5850 5849 5849 5848 5847 5846 5846 5845 5844 5844 5843 5843 5842 5841 5840 5839 5838 5836 5836 5834 5833 5831 5830 5828
5844 5844 5845 5846 5846 5847 5847 5847 5847 5847 5847 5847 5847 5846 5847 5846 5846 5846 5845 5845 5844 5844 5844 5843 5842 5840 5840 5840 5839 5839 5838 5837 5836 5835 5834 5833 5831 5831 5829 5827 5826 5824 5823
5838 5839 5840 5841 5841 5842 5842 5842 5842 5842 5842 5842 5841 5841 5841 5842 5841 5841 5840 5840 5839 5839 5838 5837 5836 5835 5835 5835 5834 5833 5832 5832 5831 5830 5830 5828 5827 5826 5824 5822 5821 5819 5817
5832 5833 5834 5835 5836 5836 5836 5836 5836 5836 5836 5836 5836 5836 5836 5836 5836 5836 5835 5834 5834 5833 5833 5832 5831 5830 5829 5829 5828 5828 5828 5827 5826 5825 5824 5823 5822 5820 5818 5816 5815 5813 5812
5826 5828 5828 5829 5829 5829 5831 5831 5831 5831 5830 5829 5830 5830 5830 5830 5830 5830 5829 5829 5828 5827 5827 5826 5826 5825 5825 5823 5823 5822 5822 5821 5821 5820 5819 5818 5816 5814 5811 5809 5809 5807 5806
5822 5822 5823 5822 5822 5822 5823 5825 5825 5825 5824 5824 5824 5825 5824 5825 5825 5824 5823 5823 5822 5821 5821 5820 5820 5820 5819 5818 5818 5817 5816 5815 5815 5814 5813 5812 5810 5808 5805 5803 5801 5800 5800
5814 5815 5815 5816 5817 5817 5817 5817 5818 5817 5818 5818 5819 5818 5819 5819 5819 5818 5817 5816 5816 5815 5814 5814 5814 5814 5813 5812 5812 5811 5810 5809 5808 5808 5807 5806 5804 5802 5800 5798 5797 5795 5794
5806 5808 5810 5810 5811 5811 5811 5811 5810 5810 5811 5811 5811 5811 5812 5812 5811 5811 5811 5810 5809 5808 5807 5807 5807 5806 5806 5805 5806 5805 5804 5803 5802 5801 5800 5800 5798 5797 5796 5794 5792 5790 5788
5802 5804 5804 5805 5805 5805 5804 5804 5803 5803 5803 5804 5804 5803 5803 5802 5802 5803 5803 5802 5802 5802 5801 5800 5799 5799 5799 5798 5798 5798 5797 5797 5796 5795 5794 5793 5792 5790 5789 5787 5786 5784 5782
5794 5796 5797 5797 5798 5796 5797 5797 5796 5796 5794 5794 5794 5794 5792 5792 5794 5793 5793 5793 5793 5793 5792 5791 5791 5791 5791 5790 5791 5790 5790 5790 5789 5788 5787 5786 5784 5783 5782 5781 5779 5777 5776
5785 5787 5787 5788 5788 5788 5788 5788 5788 5786 5786 5786 5785 5784 5784 5783 5784 5784 5783 5784 5783 5782 5782 5782 5782 5782 5783 5782 5782 5782 5782 5782 5781 5779 5779 5778 5777 5776 5774 5773 5771 5770 5768
5776 5777 5777 5778 5778 5778 5778 5778 5778 5777 5778 5777 5776 5775 5774 5772 5772 5772 5772 5772 5772 5773 5773 5772 5772 5772 5773 5773 5774 5773 5773 5773 5771 5771 5770 5769 5768 5767 5766 5764 5763 5761 5759
5766 5767 5768 5768 5768 5768 5767 5767 5767 5767 5767 5767 5764 5763 5760 5759 5759 5760 5760 5761 5762 5762 5762 5763 5763 5763 5762 5763 5762 5763 5762 5762 5762 5762 5761 5760 5759 5757 5756 5754 5753 5751 5749
5757 5758 5758 5758 5757 5757 5756 5756 5755 5755 5754 5753 5752 5751 5749 5749 5748 5747 5746 5748 5748 5748 5750 5750 5750 5752 5751 5751 5752 5752 5751 5751 5751 5751 5750 5749 5748 5746 5744 5743 5742 5739 5738
5748 5748 5747 5746 5746 5745 5745 5744 5743 5742 5741 5740 5739 5738 5737 5735 5736 5736 5733 5733 5734 5734 5734 5736 5737 5738 5739 5739 5740 5741 5741 5741 5741 5740 5739 5738 5737 5736 5734 5732 5730 5727 5725
Wind_Speed
13 13 14 14 14 15 17 19 19 20 20 20 20 20 20 20 19 19 19 18 18 17 16 15 13 13 13 14 14 14 15 15 15 15 15 15 15 15 15 16 16 16 16
15 14 15 15 15 15 16 16 16 17 17 17 17 17 18 18 18 18 18 19 20 20 19 19 17 17 16 16 16 16 16 16 16 16 17 17 17 17 17 17 17 17 17
16 15 16 16 17 17 17 16 17 18 18 18 18 17 17 17 17 18 18 18 20 20 21 21 21 20 19 18 17 16 17 17 18 18 17 18 18 18 18 18 17 19 19
17 17 16 17 18 18 18 19 16 15 16 17 17 17 18 18 18 18 18 17 17 19 18 19 19 19 18 18 18 18 18 18 18 18 18 18 18 17 18 19 20 17 17
17 17 17 18 17 17 15 18 17 16 17 16 16 17 18 18 18 19 20 21 20 19 18 17 18 18 18 18 19 19 18 19 19 19 19 19 19 20 21 20 20 18 18
18 17 17 17 18 18 16 17 19 18 18 19 19 19 20 20 21 21 21 22 22 23 22 20 19 19 19 19 19 20 20 20 20 21 21 21 21 22 21 20 20 20 20
20 19 19 20 19 19 19 20 21 21 21 22 22 22 22 22 21 21 21 21 20 20 21 21 21 20 20 19 19 19 20 20 20 21 21 21 21 21 21 22 22 23 23
22 22 22 24 24 24 23 22 23 22 21 22 22 22 22 21 20 19 19 19 19 19 19 19 19 20 20 20 20 19 19 19 20 20 21 22 22 22 23 24 26 25 25
25 26 27 28 28 27 25 24 24 23 22 22 23 22 21 20 20 19 19 19 19 19 18 18 18 17 17 18 18 18 19 19 20 21 21 22 24 24 26 27 29 29 29
29 31 31 30 28 29 27 25 26 26 24 23 23 22 21 21 21 22 21 20 20 19 18 18 19 19 19 19 19 19 19 20 21 21 22 24 25 26 28 30 32 32 33
32 33 33 32 31 30 29 28 27 27 26 26 24 23 23 23 23 23 23 23 21 21 21 20 21 21 21 22 22 22 22 22 22 22 23 24 26 27 29 31 33 34 34
32 33 33 32 31 31 30 30 29 29 27 27 26 26 24 25 24 24 24 24 24 23 24 24 24 24 24 24 23 23 23 24 24 24 25 26 27 28 29 30 30 30 29
27 26 27 27 28 29 31 32 31 30 30 29 28 29 27 26 25 24 24 24 24 24 25 25 26 26 26 26 26 25 25 26 26 28 28 28 28 28 28 28 29 29 29
25 26 28 29 29 30 32 32 32 31 32 31 31 30 29 27 25 25 25 24 25 25 26 27 27 28 28 28 27 25 23 23 23 24 25 24 26 25 26 27 28 28 28
27 29 31 31 31 33 34 33 33 33 34 34 32 32 30 28 27 27 26 25 26 27 27 28 28 29 27 27 27 25 24 24 24 24 24 25 26 27 29 29 29 28 28
30 29 31 31 33 34 33 34 34 35 35 35 34 35 33 30 29 29 27 27 27 28 29 29 28 28 28 27 26 25 25 25 25 26 26 28 30 31 31 30 31 31 29
31 32 31 34 36 35 34 34 34 35 37 37 37 36 34 33 32 31 30 29 30 31 31 31 29 29 28 27 26 25 26 26 27 26 27 28 27 26 26 27 26 26 27
34 34 36 36 36 36 37 37 37 38 38 39 39 38 35 35 35 36 34 33 33 33 34 33 30 29 28 27 27 26 26 27 27 26 25 24 22 22 23 23 23 23 23
38 38 38 39 39 40 40 41 41 42 41 41 40 40 39 38 37 38 38 37 37 36 36 36 34 31 30 29 29 28 27 27 26 25 24 25 24 23 24 24 25 25 25
38 38 38 39 40 42 44 45 45 45 45 44 44 43 44 44 42 40 41 41 40 40 39 38 38 36 33 32 32 30 30 29 28 27 28 28 28 27 27 28 27 27 28
39 39 39 39 39 42 44 45 46 46 46 47 48 48 48 47 47 46 46 44 43 43 44 43 41 39 38 36 33 34 34 32 32 32 32 32 32 31 32 31 31 31 31
40 41 42 42 42 42 44 45 46 49 51 50 49 50 51 51 50 51 51 49 48 47 46 45 44 45 42 40 39 37 37 35 35 36 36 36 35 36 36 36 36 36 36
43 43 44 44 44 45 44 44 46 49 49 50 51 49 50 52 53 54 54 54 53 51 49 45 47 47 47 44 42 42 40 39 37 35 36 38 40 39 40 40 41 41 40
44 43 42 42 43 44 45 45 45 46 49 49 50 53 55 56 56 56 55 55 55 54 52 49 50 49 49 47 46 45 46 40 39 38 39 39 41 42 43 43 43 45 46
41 41 42 42 42 42 43 44 46 47 48 50 51 52 54 56 58 59 57 56 55 56 54 52 52 50 51 51 50 48 47 44 42 42 41 41 42 44 44 43 44 47 48
37 38 40 40 40 41 42 43 45 46 48 50 52 54 55 55 57 60 62 62 61 58 58 56 55 54 53 53 52 50 47 48 47 45 44 44 45 45 46 47 47 43 39
Wind_Direction
257 264 261 262 261 255 253 255 259 262 266 271 274 274 272 272 274 273 270 269 272 276 276 273 273 278 280 280 278 276 275 274 276 279 282 283 284 286 287 289 290 290 290
254 257 261 268 271 269 265 263 259 255 257 263 266 269 272 275 276 276 275 272 272 272 274 277 279 279 278 281 285 286 286 282 279 281 284 285 285 288 290 292 292 290 290
258 261 265 270 274 277 277 272 269 267 266 265 264 264 266 268 270 272 273 272 272 271 271 272 272 274 277 280 281 282 281 281 283 282 281 284 289 290 289 289 290 292 295
262 266 270 268 269 271 274 277 277 276 271 270 274 276 277 277 278 281 281 279 275 277 278 280 284 288 287 285 282 280 280 282 284 286 286 286 286 285 286 287 288 289 294
259 263 267 267 269 269 271 279 281 280 284 285 284 283 285 287 287 288 288 288 285 283 284 285 285 283 282 283 282 279 278 280 280 280 281 282 283 285 288 288 286 288 295
253 256 260 264 268 271 271 275 281 283 285 286 285 287 287 287 285 283 283 283 284 285 287 287 286 287 288 288 286 286 284 282 280 282 284 282 282 283 281 280 281 287 294
246 252 258 262 264 268 275 275 276 280 283 285 287 287 286 285 285 285 285 286 286 284 283 284 285 286 287 288 287 285 284 283 282 281 279 278 277 276 277 278 280 283 290
244 252 258 263 265 268 269 270 272 273 275 280 281 281 281 282 283 284 285 285 285 286 287 287 286 286 286 287 288 289 288 288 287 286 286 285 281 279 278 277 279 282 287
246 249 253 257 262 267 270 273 274 273 273 272 275 277 280 283 283 284 283 284 285 287 288 290 291 290 290 292 294 294 292 289 288 288 286 285 283 281 279 279 280 282 286
251 256 256 256 260 264 268 268 270 272 272 272 274 277 278 279 280 281 282 283 284 285 285 286 285 285 287 287 288 288 288 288 286 284 284 284 284 282 279 280 281 282 284
248 249 255 260 261 262 266 267 267 269 271 273 274 275 276 276 275 276 278 280 279 280 282 282 280 280 281 281 280 281 282 283 283 285 285 286 286 286 284 283 284 284 286
248 250 252 256 261 265 267 269 270 271 272 273 274 274 273 273 273 274 275 275 276 277 278 278 277 277 276 277 275 279 282 283 283 284 285 287 287 287 287 287 288 289 289
248 251 255 257 259 262 265 267 269 270 271 271 272 271 272 273 273 275 276 277 277 276 276 277 276 277 277 278 280 280 281 280 282 283 284 287 288 290 291 292 292 291 292
251 254 257 258 260 261 263 266 267 269 269 269 268 270 271 272 275 274 274 275 276 278 278 277 277 278 280 283 284 283 284 284 287 288 288 289 291 293 295 294 294 293 293
247 250 257 260 261 262 262 263 264 265 267 267 268 270 271 274 274 274 273 274 276 278 278 277 278 279 280 280 281 284 286 286 285 285 285 288 287 290 292 291 291 292 293
251 251 252 258 260 261 264 266 266 265 264 266 268 270 272 271 272 272 274 275 275 275 276 276 278 280 279 277 276 279 280 281 282 283 286 287 288 291 292 288 285 285 288
253 254 254 253 258 261 263 261 260 262 264 265 266 270 272 274 272 270 271 271 271 270 272 274 275 276 275 275 275 275 276 277 280 283 286 288 292 295 298 296 294 290 288
249 252 254 258 261 264 264 263 263 261 260 263 266 269 271 273 274 269 267 266 266 268 270 272 272 273 274 274 273 272 274 276 279 283 286 287 293 298 301 302 299 296 294
246 251 254 258 261 264 266 266 266 266 265 265 265 267 268 268 267 270 270 268 266 266 267 269 270 269 270 270 270 271 273 276 279 281 280 282 287 294 297 297 295 293 293
253 255 259 263 264 265 266 269 271 271 272 270 268 265 264 266 265 264 267 267 266 268 268 268 267 268 269 268 268 272 273 275 278 279 279 279 282 285 289 292 292 291 291
251 254 257 259 263 266 266 266 267 271 271 272 271 269 266 263 264 264 263 264 266 266 266 267 269 268 266 266 269 272 273 275 276 278 278 280 281 281 283 285 287 288 288
258 259 263 266 267 267 268 266 265 267 269 270 270 270 270 269 267 266 265 263 261 263 264 265 267 268 268 267 268 271 274 274 275 277 279 281 282 281 282 284 284 285 285
265 267 269 269 270 270 270 268 266 266 268 271 271 268 267 266 265 264 264 263 262 261 262 261 263 266 268 268 268 270 272 272 276 280 280 280 281 282 284 284 285 285 284
268 270 271 270 271 272 272 272 269 266 266 267 267 268 265 265 265 265 262 261 261 261 260 259 261 264 266 269 269 270 272 269 274 277 278 279 280 282 283 285 287 285 283
269 272 274 275 274 275 275 274 274 272 268 265 265 264 265 265 266 265 261 259 260 261 260 258 258 260 261 264 266 270 271 274 275 276 277 279 280 281 283 283 286 284 283
272 273 274 274 274 272 272 272 273 272 271 270 270 267 264 263 262 262 263 263 260 257 259 258 258 258 258 260 262 265 266 267 271 274 276 278 277 278 280 284 287 288 279